Theta_e
313 314 314 315 315 315 315 314 315 315 314 315 315 315 315 315 315 314 314 314 314 314 314 313 313 313 312 312 312 312 312 312 312 313 314 314 314 315 315 316 316 316
314 315 315 315 315 315 315 315 315 315 315 315 315 315 315 314 314 314 314 314 314 314 314 314 313 313 313 312 312 312 312 311 312 312 312 312 312 313 313 313 313 313
315 315 315 315 315 314 315 315 315 315 315 315 315 314 314 314 314 314 314 314 314 313 313 313 313 313 313 313 312 312 312 311 311 311 311 311 311 311 311 311 311 311
314 315 315 314 315 315 315 315 314 315 314 314 314 314 314 314 313 313 313 313 313 313 313 313 312 313 313 313 313 312 312 311 311 311 310 310 310 310 310 310 309 309
314 314 315 314 315 314 314 314 314 314 314 314 314 313 313 313 313 313 312 312 312 312 312 312 312 312 312 312 312 311 311 311 310 310 310 310 309 309 309 309 309 309
314 315 314 314 314 314 314 314 314 314 314 313 313 313 313 312 312 312 311 311 311 311 311 311 310 310 310 310 310 310 310 310 309 309 309 309 308 308 308 307 307 307
314 314 314 314 314 314 314 314 314 313 313 313 313 312 312 311 311 311 310 310 310 310 310 310 309 309 309 309 309 309 309 308 308 307 306 306 305 304 304 303 303 302
314 314 314 314 314 314 313 313 313 313 313 312 312 311 311 310 310 310 310 310 310 309 309 309 309 309 309 308 307 307 306 305 304 303 302 302 301 301 300 300 300 299
314 314 314 314 313 313 313 313 313 312 311 311 310 310 310 310 310 310 310 310 309 309 309 308 308 307 305 304 303 303 302 301 301 300 300 300 299 299 298 298 298 297
314 313 313 313 313 313 312 312 312 311 311 310 310 310 310 310 310 309 309 309 308 307 306 305 304 303 302 301 301 301 300 300 299 299 298 298 297 297 297 296 296 296
313 313 313 313 312 312 312 311 311 310 310 310 310 310 310 309 309 309 308 307 305 304 303 302 302 301 301 301 301 300 300 299 299 298 297 297 297 296 296 296 296 296
313 313 312 312 312 311 311 310 310 310 310 309 310 309 309 308 308 306 305 304 302 302 301 301 301 301 301 301 301 300 300 299 298 297 297 297 296 296 296 296 296 296
313 312 312 312 311 311 310 310 310 310 309 309 309 308 307 306 305 304 302 301 301 301 301 301 301 301 301 300 300 299 298 297 297 297 296 296 296 296 296 296 295 295
312 312 311 311 310 310 310 310 310 309 309 308 307 306 304 303 302 301 301 301 301 301 301 301 300 299 299 298 297 297 296 296 296 296 296 296 296 296 295 295 295 295
312 311 311 310 310 310 309 309 309 308 307 305 304 303 302 301 301 301 301 300 300 300 299 299 298 297 297 296 296 296 296 296 296 296 296 296 296 295 295 295 295 294
311 311 310 310 309 309 309 309 307 306 304 302 301 301 301 301 301 300 300 300 299 298 298 297 296 296 296 296 296 296 296 296 296 295 295 295 295 295 295 295 294 294
310 310 310 309 309 308 308 307 304 302 301 300 300 300 300 300 300 300 299 298 297 297 296 296 296 296 296 296 296 296 295 295 295 295 295 295 294 294 294 294 294 294
310 310 309 309 308 307 305 303 301 300 300 300 300 300 300 300 300 299 298 297 297 296 296 296 296 296 296 295 295 295 295 295 294 294 294 294 294 294 293 293 293 293
309 309 308 308 306 304 302 300 300 300 300 300 300 300 300 299 298 297 297 296 296 296 296 296 296 295 295 295 295 294 294 294 294 294 294 293 293 293 293 293 293 292
308 308 307 306 303 301 300 299 299 300 300 300 300 300 298 297 297 296 296 296 296 295 295 295 295 295 295 294 294 294 294 294 293 293 293 293 293 293 292 292 292 292
308 307 305 303 300 299 299 299 300 300 300 300 299 298 297 296 296 296 296 296 296 295 295 295 295 294 294 294 294 294 293 293 293 293 293 292 292 292 292 292 291 291
307 305 302 300 299 299 299 299 300 300 299 298 297 297 296 296 296 296 296 295 295 295 295 294 294 294 294 293 293 293 293 293 292 292 292 292 292 291 291 291 291 290
305 302 300 299 299 299 299 299 299 298 297 297 297 296 296 296 296 296 296 295 295 294 294 294 293 293 293 293 292 292 292 292 292 291 291 291 291 291 290 290 290 290
301 299 298 299 299 299 299 299 298 297 297 297 297 297 297 297 296 296 295 294 294 293 293 293 293 292 292 292 292 291 291 291 291 291 291 291 290 290 290 290 290 289
299 298 298 299 299 299 298 297 297 297 297 297 298 298 298 297 296 295 294 293 293 293 292 292 292 292 292 291 291 291 291 290 290 290 290 290 290 290 290 290 289 289
298 298 298 298 298 298 297 297 297 298 298 298 298 298 297 296 295 294 293 293 292 292 292 292 292 291 291 291 290 290 290 290 289 289 289 289 289 289 289 289 289 289
Wind_Speed
12 12 11 12 11 11 9 8 7 6 4 3 3 4 5 7 8 8 9 10 10 10 10 10 11 11 12 13 15 16 17 18 18 18 20 21 23 24 26 27 27 28
15 15 14 13 12 10 9 7 5 4 3 3 4 6 7 8 9 10 11 11 12 12 12 12 12 12 12 12 13 14 14 15 16 17 18 19 20 21 23 24 25 26
17 16 14 13 11 9 7 5 3 3 3 4 6 6 7 8 9 11 11 12 12 12 12 12 12 12 12 13 13 13 13 13 13 14 15 15 17 18 18 20 21 22
17 15 13 11 9 7 5 4 3 4 4 5 5 6 7 8 9 10 10 11 10 10 10 10 10 11 12 12 12 13 13 13 14 14 14 14 14 15 16 16 17 17
15 13 11 9 7 6 5 4 4 4 4 5 5 6 7 8 8 9 9 9 8 8 8 8 9 10 10 11 11 11 11 12 13 13 14 15 14 15 15 15 15 16
13 11 9 7 6 5 4 3 3 4 5 6 7 7 7 7 7 7 7 7 7 7 7 7 8 9 9 9 10 10 11 11 12 13 13 14 14 14 15 15 16 16
10 9 8 6 5 4 3 3 4 5 6 7 7 7 6 5 5 5 5 5 5 6 7 7 8 8 9 10 10 11 12 12 13 13 14 14 14 15 15 16 17 17
9 7 6 5 4 3 3 4 5 6 6 7 6 4 3 2 2 3 3 4 5 5 6 7 8 9 9 10 11 12 13 13 14 14 14 15 15 15 16 16 17 17
8 6 5 4 3 3 4 5 6 6 6 5 3 1 0 1 2 3 3 4 5 5 6 7 8 9 9 10 11 11 12 12 13 14 14 15 15 15 16 17 18 18
7 6 5 4 4 5 5 6 6 6 5 4 3 3 2 2 2 3 4 4 5 6 6 7 8 9 10 10 11 11 12 13 14 15 15 16 16 16 18 18 19 20
6 5 4 4 5 6 6 6 6 6 5 5 4 4 3 2 2 3 4 4 5 6 6 7 9 10 11 12 13 14 15 16 16 17 17 17 18 19 20 21 22 23
6 5 5 6 7 7 7 8 7 7 6 5 5 4 3 2 3 3 4 5 5 6 7 9 10 12 13 14 15 16 17 18 18 18 19 19 20 21 22 24 25 26
6 6 7 8 8 9 9 9 8 7 6 5 4 3 3 3 3 3 4 5 6 7 9 10 12 13 14 15 16 17 17 18 18 19 19 20 21 22 23 24 26 26
8 8 9 10 10 10 10 9 8 7 6 5 4 4 3 3 3 3 4 5 6 8 10 11 12 13 14 15 16 16 17 17 18 19 20 21 22 23 24 25 26 27
9 10 11 11 11 11 10 9 8 7 6 6 5 4 3 2 2 3 4 5 7 9 10 11 12 13 14 15 16 16 17 18 20 21 22 24 24 25 25 27 28 30
11 11 12 12 12 11 10 9 8 8 7 6 5 4 2 1 2 3 4 6 7 8 9 10 12 13 14 16 17 19 20 21 22 23 24 26 27 28 29 29 30 31
12 13 13 12 12 11 10 9 9 8 7 6 4 3 1 0 2 3 4 6 7 8 10 11 12 14 15 17 19 21 22 23 24 25 26 27 29 30 32 32 33 33
13 14 13 13 12 11 11 10 10 9 7 5 4 2 1 2 3 4 5 6 7 8 10 12 13 15 16 18 20 22 23 25 26 27 28 28 29 31 33 34 35 36
14 14 14 14 13 13 12 12 10 8 7 5 3 2 2 3 4 5 6 7 8 9 11 13 14 16 17 19 21 22 24 25 26 28 29 29 30 32 34 35 37 39
15 15 15 15 15 14 13 12 10 8 6 4 3 3 3 3 4 6 7 8 9 10 12 14 15 17 19 20 21 23 24 26 27 28 30 31 32 33 35 37 38 40
17 17 16 16 16 14 13 11 9 7 5 4 3 3 3 4 5 7 8 10 11 12 14 15 17 18 20 22 23 24 26 27 29 30 31 33 33 35 36 38 40 42
18 17 17 17 16 14 12 10 8 6 5 4 3 3 4 5 7 8 10 11 13 15 16 17 18 20 21 23 24 26 27 29 30 31 33 34 35 36 38 39 41 42
19 18 18 17 15 13 11 9 7 5 4 3 3 4 5 7 9 10 12 14 15 16 17 18 18 20 21 23 25 26 28 29 31 32 34 35 36 37 39 40 41 43
20 19 17 15 13 11 9 7 6 5 4 3 4 6 8 9 11 13 14 15 15 15 16 18 19 20 22 23 25 26 28 30 32 34 35 36 37 38 39 41 42 44
20 18 16 14 12 9 8 6 5 4 4 5 7 9 10 12 13 13 13 13 14 15 17 18 20 21 22 23 24 26 28 30 32 34 35 37 38 40 41 43 44 46
19 17 15 12 10 9 7 6 5 5 6 8 9 11 12 12 13 12 12 12 14 15 17 18 20 21 21 23 25 26 29 30 32 35 36 38 40 42 44 45 47 48
Wind_Direction
183 174 166 162 158 157 155 154 159 168 183 208 241 264 276 286 293 298 303 308 310 313 314 311 308 304 302 300 298 299 299 298 297 294 289 286 284 284 284 284 285 285
158 155 152 151 150 151 153 157 167 183 214 257 278 284 292 299 305 311 315 319 321 323 324 323 320 314 309 305 302 302 302 301 302 301 299 298 295 291 290 289 288 289
148 148 149 150 152 156 159 165 183 216 253 269 280 291 305 314 319 322 322 323 324 324 324 324 324 322 320 320 319 318 318 316 315 313 312 312 309 306 305 303 302 302
147 149 151 154 156 161 168 185 215 239 257 273 294 309 318 321 322 324 324 326 328 327 329 330 330 332 332 334 335 335 336 335 334 333 333 335 334 332 328 325 325 325
148 150 153 157 161 172 188 207 229 252 275 295 310 314 316 318 320 323 325 328 334 335 339 343 342 344 346 348 351 351 352 352 351 352 354 357 357 353 350 348 349 350
151 155 159 167 175 186 205 225 256 285 296 301 304 304 309 314 316 323 329 333 340 345 352 357 356 357 360 4 9 10 12 13 11 11 10 10 10 6 3 1 1 3
158 163 167 177 186 195 223 258 279 289 290 291 294 297 304 312 318 328 339 348 357 4 9 11 8 9 10 13 18 18 18 19 19 19 17 15 14 10 5 2 0 0
165 171 176 185 196 218 252 266 270 275 279 281 284 289 302 323 343 2 18 22 24 23 22 21 16 17 18 18 21 21 19 18 16 14 13 10 8 3 359 355 351 350
173 179 185 198 219 239 252 254 259 264 263 262 258 241 115 87 66 51 45 37 36 31 27 27 23 22 23 22 23 21 17 13 7 4 2 358 356 351 348 345 342 341
180 186 196 216 231 238 244 245 246 244 231 214 177 151 132 109 80 56 47 38 36 33 28 28 24 21 20 15 12 9 4 0 356 352 350 348 346 344 343 341 339 339
186 199 211 224 231 233 235 230 224 211 193 176 161 154 138 113 84 60 54 46 39 31 23 20 14 9 4 359 355 352 349 347 345 343 342 342 342 341 341 340 338 337
201 214 221 226 227 224 219 209 199 187 176 170 166 155 134 109 83 63 55 45 33 20 10 3 359 354 349 346 344 341 340 338 337 337 338 338 338 338 337 336 335 334
214 219 219 218 214 207 201 193 184 178 173 169 161 144 122 99 79 64 51 33 16 3 355 350 347 344 341 339 337 335 335 334 334 334 334 335 334 334 333 332 331 330
214 212 208 204 201 195 191 185 179 176 173 164 150 136 123 103 83 56 32 13 359 350 344 342 340 337 335 334 333 333 333 332 332 331 330 331 330 330 330 329 328 328
208 205 201 197 196 191 185 181 178 176 170 160 150 145 133 104 67 29 10 356 347 342 337 337 336 333 332 332 331 331 331 331 331 330 329 329 328 328 328 328 327 327
205 202 200 197 193 188 183 181 180 176 167 162 158 151 138 90 23 360 351 343 339 336 333 333 334 333 333 332 330 330 330 330 330 330 330 329 328 327 327 327 326 326
204 202 199 195 189 185 184 183 179 174 169 168 166 158 160 322 337 334 333 333 332 333 333 333 334 334 333 332 331 330 330 331 330 330 330 330 329 328 327 327 327 327
202 200 196 191 188 186 186 182 178 176 175 176 179 186 242 297 317 323 326 332 334 335 334 333 332 333 332 331 331 330 330 331 330 330 330 331 330 329 329 329 328 328
199 196 193 191 190 188 185 182 180 182 185 190 202 231 281 302 314 322 329 335 336 335 334 332 332 332 331 331 331 330 330 330 330 330 330 331 332 330 330 329 329 328
196 194 193 193 191 188 186 185 188 193 199 210 231 262 292 309 321 329 332 334 335 335 333 332 332 331 330 330 329 329 329 328 329 329 329 330 330 329 329 329 329 329
196 195 195 194 192 190 189 192 197 203 213 230 250 273 298 318 327 331 332 332 334 335 335 333 332 332 330 330 329 328 328 328 327 327 327 327 328 328 328 328 329 328
198 197 196 194 193 193 194 198 204 212 226 241 262 291 312 323 327 329 331 332 333 334 334 334 333 332 331 330 329 328 328 327 327 326 326 326 326 327 328 328 328 326
198 196 196 195 196 197 198 203 209 218 234 257 286 308 318 324 326 328 329 331 333 333 333 334 334 333 332 331 330 329 328 327 326 326 325 325 326 327 326 326 325 322
198 196 196 197 198 199 203 211 219 229 249 275 299 310 318 323 327 329 331 332 334 335 335 336 335 334 333 331 330 329 328 327 326 325 324 324 324 324 323 322 320 318
196 196 197 198 200 205 210 219 230 246 269 291 304 312 318 322 325 329 332 334 336 337 337 335 333 332 331 330 329 328 327 326 325 323 323 322 322 321 321 320 319 317
195 196 198 200 205 212 218 228 245 265 285 299 307 313 317 321 326 331 335 338 337 335 333 331 329 328 327 326 326 326 325 324 322 321 320 320 319 319 319 318 318 317